Retour au catalogue

FENGYUN 1C DEB

ActifSSO
NORAD 32332·DEBRIS·🇨🇳 China

Lancé May 10, 1999 depuis Taiyuan Satellite Launch Center

Loading…

Prochains Passages (prochaines 24 heures)

TLE

FraisSource: Space-Track

Époque: Sep 13, 2026, 10:43 UTC

1 32332U 99025CXZ 26256.44688091  .00001731  00000-0  88853-3 0  9996
2 32332  99.1139 314.0819 0281178 278.0846  78.8509 13.98332688968747

Suivez FENGYUN 1C DEB en temps réel avec AllMySat

Download on the App Store